Location: Sontra
(51.0000°N, 10.0000°E)
Time: 10:48:14
(UTC+00:00)

ISS - Visible Passes

Search period start: 18 February 2019 00:00
Search period end: 28 February 2019 00:00
Orbit: 403 x 411 km, 51.6° (Epoch: 18 February)

Date Brightness Start Highest point End Pass type
(mag) Time Alt. Az. Time Alt. Az. Time Alt. Az.
23 Feb -0.9 05:34:37 10° S 05:36:35 15° SE 05:38:35 10° ESE visible
25 Feb -1.9 05:26:57 10° SSW 05:29:47 27° SSE 05:32:38 10° E visible
26 Feb -1.3 04:36:07 10° S 04:38:26 18° SE 04:40:47 10° E visible
27 Feb -1.0 03:46:32 11° SSE 03:47:08 12° SE 03:48:24 10° ESE visible
27 Feb -3.0 05:19:54 10° SW 05:23:04 47° SSE 05:26:14 10° E visible
